Regional Weather Roundup
Issued by NWS

Home | Current Version | Previous Version | Text Only | Print | Product List | Glossary Off
Versions: 1 2 3 4 5 6 7 8 9 10 11 12 13 14 15 16 17 18 19 20 21 22 23 24 25 26 27 28 29 30 31 32 33 34 35 36 37 38 39 40 41 42 43 44 45 46 47 48 49 50

000
ASUS45 KABQ 171301
RWRNM
NEW MEXICO REGIONAL WEATHER ROUNDUP
NATIONAL WEATHER SERVICE ALBUQUERQUE NM
600 AM MST FRI NOV 17 2017

NOTE: "FAIR" MEANS FEW OR NO CLOUDS BELOW 12,000 FEET AGL WITH NO
       SIGNIFICANT WEATHER OR OBSTRUCTIONS TO VISION.

      THIS PRODUCT IS RELEASED AS TWO VERSIONS.  ONE VERSION NEAR
      THE TOP OF THE HOUR CONTAINING PRELIMINARY DATA FROM ALBUQUERQUE
      AND OTHER STATIONS.  A FINAL VERSION WITH ADDITIONAL DATA IS
      ISSUED ABOUT 10 MINUTES AFTER THE HOUR.

NMZ501-503-504-510>518-171400-
NORTHWEST PLATEAU/NORTHCENTRAL MOUNTAINS

CITY           SKY/WX    TMP DP  RH WIND       PRES   REMARKS
FARMINGTON     MOCLDY    51  27  39 CALM      29.99S
LOS ALAMOS     FAIR      48  22  36 S9        30.11R
SANTA FE       FAIR      49  24  37 SE5       30.09S
TAOS           CLOUDY    47  25  42 SW10      30.08S
ANGEL FIRE     LGT RAIN  47  25  41 SW9G22    30.11R

$$
NMZ402-403-502-505>509-171400-
WESTCENTRAL MOUNTAINS/SOUTHWEST MOUNTAINS

CITY           SKY/WX    TMP DP  RH WIND       PRES   REMARKS
GALLUP         FAIR      50  24  36 S10       30.11F
GRANTS         FAIR      45  19  35 S5        30.12F
SILVER CITY    FAIR      43  20  39 N12       30.13R

$$
NMZ407-409-411-412-171400-
SOUTHERN DESERTS

CITY           SKY/WX    TMP DP  RH WIND       PRES   REMARKS
DEMING         FAIR      41  21  44 W8        30.09F
LAS CRUCES     FAIR      55  21  26 W12       30.09S
HOLLOMAN AFB   FAIR      53  28  38 SE9       30.07S
ALAMOGORDO     FAIR      57  27  30 S9        30.06R
T OR C         FAIR      53  21  28 W3        30.06R

$$
NMZ519>523-171400-
CENTRAL VALLEYS/CENTRAL HIGHLANDS

CITY           SKY/WX    TMP DP  RH WIND       PRES   REMARKS
ALBUQUERQUE    FAIR      47  19  33 SE9       30.07S
DOUBLE EAGLE   PTCLDY    48  19  32 S13       30.08
MORIARTY ARPT  FAIR      57  18  21 W16G22    30.10S
CLINES CORNERS FAIR      51  15  23 W22       30.10S
BELEN          FAIR      47  18  31 CALM      30.08S
SOCORRO        FAIR      46  21  38 CALM      30.07R

$$
NMZ524>526-539-540-171400-
SOUTHCENTRAL MOUNTAINS

CITY           SKY/WX    TMP DP  RH WIND       PRES   REMARKS
RUIDOSO        FAIR      57  16  19 W20G28    30.12S

$$
NMZ527>531-171400-
NORTHEAST HIGHLANDS/NORTHEAST PLAINS

CITY           SKY/WX    TMP DP  RH WIND       PRES   REMARKS
LAS VEGAS      FAIR      54  20  26 W22G36    29.98S
RATON          FAIR      58  26  29 W24G36    29.89S
CLAYTON        FAIR      50  31  48 SW10      29.86R

$$
NMZ532>537-171400-
EASTCENTRAL PLAINS

CITY           SKY/WX    TMP DP  RH WIND       PRES   REMARKS
SANTA ROSA     FAIR      48  23  37 NE7       29.95R
TUCUMCARI      FAIR      54  28  36 SW14      29.87S
CANNON AFB     FAIR      46  46 100 W8        29.97S
CLOVIS AIRPORT FAIR      46  38  73 SW12      29.95S

$$
NMZ028-029-538-171400-
SOUTHEAST PLAINS

CITY           SKY/WX    TMP DP  RH WIND       PRES   REMARKS
ROSWELL        FAIR      41  40  96 CALM      29.96F
ARTESIA        FAIR      59  32  36 SW17      29.97S
CARLSBAD       FAIR      43  43 100 VRB3      29.97R
HOBBS          CLEAR     46  41  81 CALM      29.98S


$$



USA.gov is the U.S. government's official web portal to all federal, state and local government web resources and services.